sat.trackr.live / text

‹ back to catalog

STARLINK-35139

NORAD 66380 · 2025-257A

PAYLOAD ACTIVE UNKNOWN

§ Identity

Operator
Country
US
Launch date
2025-11-09
Launch site
AFETR
Launch vehicle
Mass (kg)
RCS (m²)

Purposes: comms

External: N2YO · Heavens-Above · Gunter

§ Orbital elements

Epoch: 2026-09-20T22:55:07.203936Z

Period
93.85 min
Inclination
53.1606°
Eccentricity
0.0001214
Mean motion
15.34388608 rev/d
Perigee alt
461.9 km
Apogee alt
463.6 km
Semi-major
6,840.9 km
B*
1.4420e-4
RAAN
25.4933°
Arg perigee
77.3300°
Mean anomaly
282.7838°
Rev number
4,963

§ Raw data

STARLINK-351391 66380U 25257A   26263.95494449  .00004497  00000+0  14420-3 0  99982 66380  53.1606  25.4933 0001214  77.3300 282.7838 15.34388608 49636

JSON: /api/v1/satellites/66380 · /tle

For live sub-satellite position, see the globe view (requires WebGL).

§ Visibility from observer

Set your observer location to see the next 7 days of passes ≥ 10°. The values pass through the URL so the page stays shareable.

No JS? Fill the form by hand. The geolocation button needs JavaScript.